Weather at Svenningdal Airstrip

Public forecast

Using degrees Celsius for public forecast. Weather courtesy of forecast.io.

Closest aviation weather report (METAR) to Svenningdal Airstrip

Closest report is Mosjøen Airport (Kjærstad), 21.0 nm (38.9 km) NNW. Retrieved 2021/01/28 08:20 UTC (6 minutes ago):

ENMS 280820Z 13003KT 080V170 9999 FEW028 BKN050 M04/M07 Q1003 RMK WIND 412FT 06004KT

Closest aviation forecast (TAF) to Svenningdal Airstrip

Forecast is more than 12 hours old.

Closest forecast is Hemavan Airport, 46.9 nm (86.8 km) ENE. Retrieved 2009/10/12 22:40 UTC (11 years ago):

TAF TAF LTCC 122240Z 13 SASN33 ESWI 130020 RRA METAR ESUT 130020Z AUTO 00000KT 9999NDV NCD M08/M10 Q1022